This is the latest recevied weather packets stored in our database for station/object KD0RII. If no packets are shown the sender has not sent any weather packets the latest 10 day(s).
| Time | Temp. | Humidity | Pressure | Rain* | Wind** | Luminosity | Snow |
|---|---|---|---|---|---|---|---|
| 1778172281 | 18.33° C | 53% | 1017.5 hPa | 0 mm | - | 471 W/m² | - |
| 1778171978 | 18.33° C | 53% | 1017.6 hPa | 0 mm | - | 850 W/m² | - |
| 1778171675 | 17.78° C | 57% | 1017.8 hPa | 0 mm | - | 896 W/m² | - |
| 1778171372 | 17.78° C | 54% | 1017.8 hPa | 0 mm | - | 904 W/m² | - |
| 1778171067 | 17.78° C | 54% | 1018 hPa | 0 mm | - | 275 W/m² | - |
| 1778170765 | 17.78° C | 55% | 1017.9 hPa | 0 mm | - | 828 W/m² | - |
| 1778170461 | 17.78° C | 54% | 1018 hPa | 0 mm | - | 766 W/m² | - |
| 1778170158 | 17.78° C | 54% | 1018.1 hPa | 0 mm | - | 752 W/m² | - |
| 1778169854 | 17.78° C | 55% | 1017.9 hPa | 0 mm | - | 765 W/m² | - |
| 1778169550 | 17.78° C | 57% | 1018.2 hPa | 0 mm | - | 680 W/m² | - |
| 1778169246 | 17.78° C | 55% | 1017.8 hPa | 0 mm | - | 611 W/m² | - |
| 1778168943 | 17.78° C | 56% | 1017.9 hPa | 0 mm | - | 610 W/m² | - |
| 1778168640 | 17.22° C | 59% | 1018 hPa | 0 mm | - | 596 W/m² | - |
| 1778168640 | 17.22° C | 59% | 1018 hPa | 0 mm | - | 596 W/m² | - |
| 1778168390 | 17.22° C | 56% | 1018.1 hPa | 0 mm | - | 148 W/m² | - |
| 1778168337 | 17.22° C | 56% | 1018.1 hPa | 0 mm | - | 148 W/m² | - |
| 1778168178 | 17.22° C | 58% | 1018.1 hPa | 0 mm | - | 566 W/m² | - |
| 1778168033 | 17.22° C | 58% | 1018.1 hPa | 0 mm | - | 566 W/m² | - |
| 1778167935 | 17.22° C | 57% | 1018.1 hPa | 0 mm | - | 527 W/m² | - |
| 1778167730 | 17.22° C | 57% | 1018.1 hPa | 0 mm | - | 527 W/m² | - |
| 1778167553 | 17.22° C | 59% | 1018.2 hPa | 0 mm | - | 498 W/m² | - |
| 1778167426 | 17.22° C | 58% | 1018.2 hPa | 0 mm | - | 513 W/m² | - |
| 1778167122 | 17.22° C | 59% | 1018.2 hPa | 0 mm | - | 498 W/m² | - |
| 1778166819 | 16.67° C | 60% | 1018.3 hPa | 0 mm | - | 483 W/m² | - |
| 1778166516 | 16.67° C | 61% | 1018.5 hPa | 0 mm | - | 468 W/m² | - |
* Rain latest hour (hover to see other rain measurements)
** Current wind speed in m/s (hover to see current wind gust speed)